Weather History for Provincetown, MA

Change the Weather History Date:

Wednesday, January 1, 2014

  Actual Average Record
Temperature  
Mean Temperature 26 °F -  
Max Temperature 28 °F 38 °F 53 °F (1955)
Min Temperature 23 °F 28 °F 10 °F (2009)
Degree Days  
Heating Degree Days 40    
Moisture  
Dew Point 8 °F    
Average Humidity 47    
Maximum Humidity 55    
Minimum Humidity 40    
Precipitation  
Precipitation 0.13 in - - ()
Sea Level Pressure  
Sea Level Pressure 30.33 in    
Wind  
Wind Speed 17 mph (WNW)    
Max Wind Speed 25 mph    
Max Gust Speed 32 mph    
Visibility 10 miles    
Events      
Averages and records for this station are not official NWS values.
T = Trace of Precipitation, MM = Missing Value Source: NWS Daily Summary

Daily Weather History Graph

Daily Weather History Graph

Search for Another Location

Airport:

Trip Planner

Search our weather history database for the weather conditions in past years. The results will help you decide how hot, cold, wet, or windy it might be!

Date:

Astronomy

Jan. 01, 2014 Rise Set
Actual Time 7:09 AM EST 4:19 PM EST
Civil Twilight 6:37 AM EST 4:51 PM EST
Nautical Twilight 6:02 AM EST 5:26 PM EST
Astronomical Twilight 5:28 AM EST 6:00 PM EST
Moon 6:55 AM EST (1/1) 5:02 PM EST (1/1)
Length of Visible Light 10h 14m
Length of Day
9h 10m
New Moon, 0% of the Moon is Illuminated
Jan 1
New Moon
Jan 7
First Quarter
Jan 15
Full
Jan 24
Last Quarter
Jan 30
New

Hourly Weather History & Observations

Time (EST) Temp. Windchill Dew Point Humidity Pressure Visibility Wind Dir Wind Speed Gust Speed Precip Events Conditions
12:15 AM 26.6 °F 12.4 °F 10.4 °F 51% 30.18 in 10.0 mi West 21.9 mph 32.2 mph N/A   Partly Cloudy
12:35 AM 26.6 °F 12.4 °F 10.4 °F 51% 30.19 in 10.0 mi WNW 21.9 mph 32.2 mph N/A   Partly Cloudy
12:55 AM 24.8 °F 10.0 °F 8.6 °F 50% 30.19 in 10.0 mi West 21.9 mph 32.2 mph 0.01 in   Partly Cloudy
1:15 AM 24.8 °F 10.3 °F 8.6 °F 50% 30.20 in 10.0 mi West 20.7 mph 31.1 mph N/A   Mostly Cloudy
1:35 AM 24.8 °F 11.1 °F 6.8 °F 46% 30.21 in 10.0 mi West 18.4 mph 31.1 mph 0.02 in   Scattered Clouds
1:55 AM 24.8 °F 9.0 °F 6.8 °F 46% 30.22 in 10.0 mi WNW 25.3 mph 29.9 mph 0.02 in   Scattered Clouds
2:15 AM 24.8 °F 11.5 °F 8.6 °F 50% 30.23 in 10.0 mi West 17.3 mph 29.9 mph N/A   Scattered Clouds
2:35 AM 24.8 °F 10.7 °F 6.8 °F 46% 30.24 in 10.0 mi West 19.6 mph 25.3 mph N/A   Partly Cloudy
2:55 AM 24.8 °F 10.3 °F 6.8 °F 46% 30.24 in 10.0 mi WNW 20.7 mph 28.8 mph N/A   Clear
3:15 AM 24.8 °F 11.1 °F 6.8 °F 46% 30.25 in 10.0 mi West 18.4 mph 27.6 mph N/A   Clear
3:35 AM 24.8 °F 11.1 °F 6.8 °F 46% 30.24 in 10.0 mi West 18.4 mph 26.5 mph N/A   Clear
3:55 AM 24.8 °F 11.5 °F 5.0 °F 43% 30.25 in 10.0 mi West 17.3 mph 25.3 mph N/A   Clear
4:15 AM 24.8 °F 9.6 °F 6.8 °F 46% 30.26 in 10.0 mi West 23.0 mph 27.6 mph N/A   Clear
4:35 AM 23.0 °F 7.2 °F 5.0 °F 46% 30.27 in 10.0 mi West 23.0 mph 29.9 mph N/A   Clear
4:55 AM 23.0 °F 8.3 °F 6.8 °F 50% 30.28 in 10.0 mi West 19.6 mph 31.1 mph N/A   Clear
5:15 AM 23.0 °F 8.3 °F 6.8 °F 50% 30.28 in 10.0 mi West 19.6 mph 31.1 mph N/A   Clear
5:35 AM 23.0 °F 8.3 °F 6.8 °F 50% 30.29 in 10.0 mi West 19.6 mph 28.8 mph N/A   Clear
5:55 AM 23.0 °F 7.6 °F 8.6 °F 54% 30.29 in 10.0 mi West 21.9 mph 29.9 mph N/A   Clear
6:15 AM 23.0 °F 7.2 °F 8.6 °F 54% 30.30 in 10.0 mi West 23.0 mph 28.8 mph N/A   Clear
6:35 AM 23.0 °F 8.3 °F 6.8 °F 50% 30.31 in 10.0 mi West 19.6 mph 29.9 mph N/A   Clear
6:55 AM 23.0 °F 7.6 °F 8.6 °F 54% 30.32 in 10.0 mi West 21.9 mph 31.1 mph N/A   Clear
7:15 AM 23.0 °F 9.6 °F 8.6 °F 54% 30.32 in 10.0 mi West 16.1 mph 28.8 mph N/A   Clear
7:35 AM 23.0 °F 8.7 °F 5.0 °F 46% 30.34 in 10.0 mi West 18.4 mph 26.5 mph N/A   Clear
7:55 AM 23.0 °F 9.2 °F 6.8 °F 50% 30.34 in 10.0 mi West 17.3 mph 25.3 mph N/A   Clear
8:15 AM 24.8 °F 11.1 °F 6.8 °F 46% 30.35 in 10.0 mi West 18.4 mph 24.2 mph N/A   Clear
8:35 AM 24.8 °F 11.1 °F 6.8 °F 46% 30.36 in 10.0 mi West 18.4 mph 24.2 mph N/A   Clear
8:55 AM 24.8 °F 11.9 °F 6.8 °F 46% 30.36 in 10.0 mi West 16.1 mph 21.9 mph 0.01 in   Partly Cloudy
9:15 AM 24.8 °F 11.9 °F 6.8 °F 46% 30.37 in 10.0 mi West 16.1 mph 26.5 mph 0.01 in   Clear
9:35 AM 26.6 °F 13.4 °F 8.6 °F 47% 30.37 in 10.0 mi West 18.4 mph 24.2 mph 0.01 in   Clear
9:55 AM 26.6 °F 13.4 °F 8.6 °F 47% 30.37 in 10.0 mi West 18.4 mph 24.2 mph 0.01 in   Clear
10:15 AM 26.6 °F 14.3 °F 8.6 °F 47% 30.38 in 10.0 mi West 16.1 mph 24.2 mph 0.01 in   Clear
10:35 AM 26.6 °F 13.4 °F 8.6 °F 47% 30.38 in 10.0 mi West 18.4 mph 25.3 mph 0.02 in   Clear
10:55 AM 26.6 °F 14.7 °F 8.6 °F 47% 30.36 in 10.0 mi WNW 15.0 mph 24.2 mph 0.04 in   Partly Cloudy
11:15 AM 26.6 °F 15.7 °F 8.6 °F 47% 30.34 in 10.0 mi WNW 12.7 mph 20.7 mph N/A   Partly Cloudy
11:35 AM 26.6 °F 13.8 °F 8.6 °F 47% 30.34 in 10.0 mi West 17.3 mph - 0.01 in   Mostly Cloudy
11:55 AM 26.6 °F 15.7 °F 8.6 °F 47% 30.34 in 10.0 mi West 12.7 mph 19.6 mph 0.01 in   Scattered Clouds
12:15 PM 28.4 °F 17.0 °F 8.6 °F 43% 30.34 in 10.0 mi West 15.0 mph 19.6 mph N/A   Scattered Clouds
12:35 PM 28.4 °F 19.1 °F 10.4 °F 47% 30.34 in 10.0 mi West 10.4 mph 18.4 mph N/A   Scattered Clouds
12:55 PM 28.4 °F 18.0 °F 8.6 °F 43% 30.34 in 10.0 mi West 12.7 mph 20.7 mph N/A   Mostly Cloudy
1:15 PM 26.6 °F 16.2 °F 6.8 °F 43% 30.34 in 10.0 mi West 11.5 mph 16.1 mph N/A   Mostly Cloudy
1:35 PM 28.4 °F 18.0 °F 8.6 °F 43% 30.33 in 10.0 mi West 12.7 mph 17.3 mph N/A   Mostly Cloudy
1:55 PM 28.4 °F 17.5 °F 6.8 °F 40% 30.34 in 10.0 mi West 13.8 mph - N/A   Mostly Cloudy
2:15 PM 28.4 °F 18.0 °F 6.8 °F 40% 30.34 in 10.0 mi West 12.7 mph 17.3 mph N/A   Scattered Clouds
2:35 PM 28.4 °F 19.1 °F 6.8 °F 40% 30.34 in 10.0 mi West 10.4 mph - N/A   Scattered Clouds
2:55 PM 26.6 °F 16.8 °F 6.8 °F 43% 30.34 in 10.0 mi West 10.4 mph - N/A   Partly Cloudy
3:15 PM 28.4 °F 21.2 °F 8.6 °F 43% 30.34 in 10.0 mi WNW 6.9 mph - N/A   Partly Cloudy
3:35 PM 26.6 °F 19.1 °F 6.8 °F 43% 30.34 in 10.0 mi WNW 6.9 mph - N/A   Scattered Clouds
3:55 PM 26.6 °F 17.5 °F 8.6 °F 47% 30.35 in 10.0 mi WNW 9.2 mph 16.1 mph N/A   Partly Cloudy
4:15 PM 26.6 °F 16.2 °F 8.6 °F 47% 30.35 in 10.0 mi West 11.5 mph - N/A   Partly Cloudy
4:35 PM 26.6 °F 17.5 °F 6.8 °F 43% 30.35 in 10.0 mi WNW 9.2 mph - N/A   Clear
4:55 PM 26.6 °F 16.8 °F 6.8 °F 43% 30.35 in 10.0 mi West 10.4 mph - N/A   Clear
5:15 PM 26.6 °F 19.1 °F 5.0 °F 40% 30.35 in 10.0 mi West 6.9 mph - N/A   Partly Cloudy
5:35 PM 26.6 °F 17.5 °F 6.8 °F 43% 30.36 in 10.0 mi West 9.2 mph - 0.01 in   Partly Cloudy
5:55 PM 26.6 °F 17.5 °F 8.6 °F 47% 30.36 in 10.0 mi WNW 9.2 mph - 0.01 in   Clear
6:15 PM 26.6 °F 15.7 °F 6.8 °F 43% 30.37 in 10.0 mi WNW 12.7 mph 17.3 mph 0.01 in   Clear
6:35 PM 26.6 °F 16.2 °F 6.8 °F 43% 30.37 in 10.0 mi WNW 11.5 mph - 0.01 in   Clear
6:55 PM 26.6 °F 16.8 °F 8.6 °F 47% 30.37 in 10.0 mi WNW 10.4 mph - 0.01 in   Clear
7:15 PM 26.6 °F 16.8 °F 6.8 °F 43% 30.37 in 10.0 mi WNW 10.4 mph - N/A   Clear
7:35 PM 26.6 °F 17.5 °F 8.6 °F 47% 30.37 in 10.0 mi NW 9.2 mph - N/A   Clear
7:55 PM 26.6 °F 20.0 °F 8.6 °F 47% 30.37 in 10.0 mi WNW 5.8 mph - N/A   Scattered Clouds
8:15 PM 26.6 °F 20.0 °F 8.6 °F 47% 30.37 in 10.0 mi WNW 5.8 mph - 0.01 in   Scattered Clouds
8:35 PM 26.6 °F 22.6 °F 10.4 °F 51% 30.36 in 10.0 mi NW 3.5 mph - 0.01 in   Clear
8:55 PM 26.6 °F 19.1 °F 10.4 °F 51% 30.37 in 10.0 mi WNW 6.9 mph - 0.01 in   Mostly Cloudy
9:15 PM 26.6 °F 19.1 °F 8.6 °F 47% 30.37 in 10.0 mi WNW 6.9 mph - N/A   Overcast
9:35 PM 28.4 °F 20.4 °F 12.2 °F 51% 30.37 in 10.0 mi WNW 8.1 mph - N/A   Overcast
9:55 PM 26.6 °F 20.0 °F 10.4 °F 51% 30.37 in 10.0 mi WNW 5.8 mph - N/A   Scattered Clouds
10:15 PM 26.6 °F 21.2 °F 12.2 °F 55% 30.37 in 10.0 mi NW 4.6 mph - N/A   Clear
10:35 PM 26.6 °F 19.1 °F 12.2 °F 55% 30.38 in 10.0 mi NNW 6.9 mph - N/A   Scattered Clouds
10:55 PM 26.6 °F 21.2 °F 10.4 °F 51% 30.38 in 10.0 mi North 4.6 mph - N/A   Mostly Cloudy
11:15 PM 26.6 °F 19.1 °F 12.2 °F 55% 30.38 in 10.0 mi North 6.9 mph - N/A   Overcast
11:35 PM 26.6 °F 18.2 °F 12.2 °F 55% 30.37 in 10.0 mi North 8.1 mph - N/A   Overcast
11:55 PM 26.6 °F 21.2 °F 12.2 °F 55% 30.37 in 10.0 mi North 4.6 mph - N/A   Overcast